When you browse on this site, cookies collect data to enhance your experience and personalize the content and advertising you see.
Visit our Privacy Policy to learn more. By continuing to use the site, you agree to this use of cookies and data.
  • In Spain
  • List of Countries
  • For 7 days
  • Water Temperature
  • Weather Map
  • Weather Widgets
  • user-avatar
    Login

    Hourly Weather Kalemie

    Today, 8 April, Wednesday

    Time Temperature Precipitation Wind Pressure Humidity
    00:00 +28°C° 0 mm 1 mps 704 mmHg 57%
    01:00 +28°C° 0 mm 1 mps 703 mmHg 58%
    02:00 +27°C° 0 mm 1 mps 703 mmHg 58%
    03:00 +27°C° 0 mm 1 mps 703 mmHg 59%
    04:00 +27°C° 0 mm 1 mps 703 mmHg 61%
    05:00 +26°C° 0 mm 1 mps 703 mmHg 62%
    06:00 +28°C° 0 mm 1 mps 704 mmHg 56%
    07:00 +30°C° 0 mm 1 mps 705 mmHg 51%
    08:00 +32°C° 0 mm 1 mps 706 mmHg 45%
    09:00 +36°C° 0 mm 2 mps 706 mmHg 39%
    10:00 +38°C° 0 mm 2 mps 706 mmHg 32%
    11:00 +41°C° 0 mm 2 mps 706 mmHg 25%
    12:00 +41°C° 0 mm 2 mps 705 mmHg 26%
    13:00 +40°C° 0 mm 2 mps 704 mmHg 27%
    14:00 +39°C° 0 mm 2 mps 703 mmHg 28%
    15:00 +39°C° 0 mm 2 mps 703 mmHg 28%
    16:00 +39°C° 0 mm 2 mps 702 mmHg 29%
    17:00 +39°C° 0 mm 2 mps 702 mmHg 30%
    18:00 +35°C° 0 mm 1 mps 702 mmHg 36%
    19:00 +33°C° 0 mm 1 mps 702 mmHg 42%
    20:00 +30°C° 0 mm 1 mps 702 mmHg 48%
    21:00 +30°C° 0.1 mm 1 mps 703 mmHg 50%
    22:00 +29°C° 0.1 mm 1 mps 703 mmHg 52%
    23:00 +29°C° 0.1 mm 1 mps 703 mmHg 54%

    Tomorrow, 9 April, Thursday

    Time Temperature Precipitation Wind Pressure Humidity
    00:00 +28°C° 0.2 mm 1 mps 703 mmHg 57%
    01:00 +28°C° 0.2 mm 1 mps 703 mmHg 60%
    02:00 +27°C° 0.2 mm 1 mps 703 mmHg 63%
    03:00 +27°C° 0.1 mm 1 mps 703 mmHg 65%
    04:00 +26°C° 0.1 mm 1 mps 703 mmHg 68%
    05:00 +26°C° 0.1 mm 1 mps 704 mmHg 70%
    06:00 +27°C° 0.2 mm 2 mps 704 mmHg 68%
    07:00 +28°C° 0.2 mm 2 mps 705 mmHg 66%
    08:00 +29°C° 0.2 mm 2 mps 706 mmHg 64%
    09:00 +33°C° 0 mm 3 mps 706 mmHg 53%
    10:00 +36°C° 0 mm 3 mps 706 mmHg 42%
    11:00 +39°C° 0 mm 3 mps 706 mmHg 31%
    12:00 +40°C° 0 mm 3 mps 705 mmHg 29%
    13:00 +42°C° 0 mm 3 mps 704 mmHg 27%
    14:00 +43°C° 0 mm 3 mps 704 mmHg 24%
    15:00 +40°C° 0 mm 3 mps 703 mmHg 29%
    16:00 +38°C° 0 mm 2 mps 702 mmHg 33%
    17:00 +36°C° 0 mm 2 mps 701 mmHg 38%
    18:00 +32°C° 0.3 mm 2 mps 702 mmHg 49%
    19:00 +30°C° 0.3 mm 2 mps 702 mmHg 60%
    20:00 +27°C° 0.3 mm 2 mps 703 mmHg 71%
    21:00 +27°C° 0 mm 1 mps 703 mmHg 72%
    22:00 +27°C° 0 mm 1 mps 703 mmHg 73%
    23:00 +27°C° 0 mm 1 mps 703 mmHg 75%

    Day after tomorrow, 10 April, Friday

    Time Temperature Precipitation Wind Pressure Humidity
    00:00 +27°C° 0 mm 1 mps 703 mmHg 74%
    01:00 +27°C° 0 mm 1 mps 703 mmHg 74%
    02:00 +27°C° 0 mm 1 mps 703 mmHg 74%
    03:00 +26°C° 0 mm 1 mps 703 mmHg 75%
    04:00 +26°C° 0 mm 1 mps 703 mmHg 76%
    05:00 +25°C° 0 mm 1 mps 704 mmHg 77%
    06:00 +27°C° 0 mm 1 mps 704 mmHg 71%
    07:00 +29°C° 0 mm 1 mps 705 mmHg 64%
    08:00 +30°C° 0 mm 2 mps 706 mmHg 57%
    09:00 +34°C° 0 mm 2 mps 706 mmHg 48%
    10:00 +37°C° 0 mm 2 mps 706 mmHg 39%
    11:00 +39°C° 0 mm 2 mps 706 mmHg 30%
    12:00 +38°C° 0.1 mm 2 mps 705 mmHg 33%
    13:00 +37°C° 0.1 mm 2 mps 704 mmHg 35%
    14:00 +35°C° 0.1 mm 1 mps 703 mmHg 38%
    15:00 +34°C° 0.2 mm 1 mps 703 mmHg 42%
    16:00 +33°C° 0.2 mm 1 mps 702 mmHg 46%
    17:00 +32°C° 0.2 mm 2 mps 702 mmHg 51%
    18:00 +30°C° 0 mm 2 mps 703 mmHg 58%
    19:00 +28°C° 0 mm 2 mps 703 mmHg 66%
    20:00 +26°C° 0 mm 2 mps 703 mmHg 73%
    21:00 +26°C° 0.1 mm 2 mps 704 mmHg 75%
    22:00 +25°C° 0.1 mm 2 mps 704 mmHg 77%
    23:00 +25°C° 0.1 mm 2 mps 704 mmHg 79%

    11 April, Saturday

    Time Temperature Precipitation Wind Pressure Humidity
    00:00 +25°C° 0.3 mm 1 mps 704 mmHg 80%
    01:00 +25°C° 0.3 mm 1 mps 704 mmHg 81%
    02:00 +22°C° 0.3 mm 0 mps 704 mmHg 83%
    03:00 +24°C° 0.9 mm 1 mps 704 mmHg 86%
    04:00 +23°C° 0.9 mm 1 mps 704 mmHg 89%
    05:00 +23°C° 0.9 mm 1 mps 704 mmHg 92%
    06:00 +24°C° 0 mm 1 mps 705 mmHg 87%
    07:00 +25°C° 0 mm 2 mps 705 mmHg 83%
    08:00 +26°C° 0 mm 2 mps 706 mmHg 78%
    09:00 +30°C° 0 mm 2 mps 706 mmHg 66%
    10:00 +33°C° 0 mm 1 mps 706 mmHg 54%
    11:00 +36°C° 0 mm 1 mps 706 mmHg 42%
    12:00 +37°C° 0 mm 2 mps 705 mmHg 42%
    13:00 +37°C° 0 mm 2 mps 705 mmHg 42%
    14:00 +36°C° 0 mm 2 mps 704 mmHg 42%
    15:00 +35°C° 0.3 mm 2 mps 703 mmHg 46%
    16:00 +34°C° 0.3 mm 2 mps 703 mmHg 49%
    17:00 +32°C° 0.3 mm 1 mps 703 mmHg 52%
    18:00 +30°C° 2.3 mm 2 mps 703 mmHg 65%
    19:00 +27°C° 2.3 mm 2 mps 704 mmHg 78%
    20:00 +24°C° 2.3 mm 3 mps 704 mmHg 92%
    21:00 +24°C° 0.6 mm 2 mps 704 mmHg 91%
    22:00 +24°C° 0.6 mm 1 mps 704 mmHg 91%
    23:00 +24°C° 0.6 mm 1 mps 705 mmHg 91%

    12 April, Sunday

    Time Temperature Precipitation Wind Pressure Humidity
    00:00 +24°C° 0.1 mm 1 mps 704 mmHg 89%
    01:00 +25°C° 0.1 mm 1 mps 704 mmHg 87%
    02:00 +25°C° 0.1 mm 1 mps 703 mmHg 85%
    03:00 +25°C° 0 mm 1 mps 703 mmHg 85%
    04:00 +25°C° 0 mm 1 mps 703 mmHg 84%
    05:00 +25°C° 0 mm 2 mps 703 mmHg 84%
    06:00 +25°C° 0 mm 2 mps 704 mmHg 81%
    07:00 +26°C° 0 mm 1 mps 705 mmHg 79%
    08:00 +27°C° 0 mm 1 mps 705 mmHg 77%
    09:00 +28°C° 0 mm 1 mps 706 mmHg 69%
    10:00 +30°C° 0 mm 1 mps 706 mmHg 62%
    11:00 +32°C° 0 mm 1 mps 706 mmHg 54%
    12:00 +32°C° 0.1 mm 1 mps 705 mmHg 52%
    13:00 +34°C° 0.1 mm 2 mps 705 mmHg 51%
    14:00 +34°C° 0.1 mm 2 mps 704 mmHg 49%
    15:00 +32°C° 0.3 mm 2 mps 704 mmHg 55%
    16:00 +30°C° 0.3 mm 2 mps 703 mmHg 60%
    17:00 +29°C° 0.3 mm 1 mps 703 mmHg 66%
    18:00 +28°C° 0.1 mm 2 mps 704 mmHg 72%
    19:00 +27°C° 0.1 mm 2 mps 704 mmHg 77%
    20:00 +25°C° 0.1 mm 2 mps 704 mmHg 83%
    21:00 +25°C° 0 mm 2 mps 704 mmHg 84%
    22:00 +24°C° 0 mm 3 mps 705 mmHg 86%
    23:00 +24°C° 0 mm 3 mps 705 mmHg 87%

    13 April, Monday

    Time Temperature Precipitation Wind Pressure Humidity
    00:00 +24°C° 0.1 mm 3 mps 704 mmHg 87%
    01:00 +24°C° 0.1 mm 3 mps 704 mmHg 87%
    02:00 +24°C° 0.1 mm 3 mps 704 mmHg 87%
    03:00 +24°C° 0.4 mm 2 mps 704 mmHg 89%
    04:00 +23°C° 0.4 mm 2 mps 704 mmHg 91%
    05:00 +23°C° 0.4 mm 1 mps 704 mmHg 93%
    06:00 +24°C° 0 mm 1 mps 705 mmHg 90%
    07:00 +24°C° 0 mm 2 mps 705 mmHg 88%
    08:00 +25°C° 0 mm 2 mps 706 mmHg 85%
    09:00 +27°C° 0 mm 2 mps 706 mmHg 76%
    10:00 +29°C° 0 mm 1 mps 707 mmHg 68%
    11:00 +31°C° 0 mm 1 mps 707 mmHg 59%
    12:00 +32°C° 0 mm 1 mps 706 mmHg 55%
    13:00 +32°C° 0 mm 1 mps 705 mmHg 52%
    14:00 +34°C° 0 mm 2 mps 704 mmHg 48%
    15:00 +33°C° 0 mm 1 mps 704 mmHg 46%
    16:00 +34°C° 0 mm 1 mps 704 mmHg 45%
    17:00 +34°C° 0 mm 1 mps 703 mmHg 43%
    18:00 +32°C° 0.4 mm 1 mps 703 mmHg 54%
    19:00 +29°C° 0.4 mm 1 mps 703 mmHg 64%
    20:00 +27°C° 0.4 mm 1 mps 703 mmHg 74%
    21:00 +26°C° 0.2 mm 1 mps 704 mmHg 77%
    22:00 +26°C° 0.2 mm 1 mps 704 mmHg 80%
    23:00 +25°C° 0.2 mm 1 mps 704 mmHg 82%
    Show more